Time,TemperatureF,DewpointF,PressureIn,WindDirection,WindDirectionDegrees,WindSpeedMPH,WindSpeedGustMPH,Humidity,HourlyPrecipIn,Conditions,Clouds,dailyrainin,SoftwareType,DateUTC
2013-08-12 00:00:00,79.0,41.0,30.09,WSW,252,5.0,15.0,26,0.00,,,-99.99,,2013-08-12 06:00:00,
2013-08-12 00:32:00,79.0,41.0,30.09,WSW,252,5.0,15.0,26,0.00,,,-99.99,,2013-08-12 06:32:00,
2013-08-12 00:42:00,79.0,41.0,30.09,WSW,252,5.0,15.0,26,0.00,,,-99.99,,2013-08-12 06:42:00,
2013-08-12 00:52:00,79.0,41.0,30.09,WSW,252,5.0,15.0,26,0.00,,,-99.99,,2013-08-12 06:52:00,
2013-08-12 01:00:00,76.0,43.0,30.10,SSE,156,4.0,10.0,30,0.00,,,-99.99,,2013-08-12 07:00:00,
2013-08-12 01:33:00,76.0,43.0,30.10,SSE,156,4.0,10.0,30,0.00,,,-99.99,,2013-08-12 07:33:00,
2013-08-12 01:43:00,76.0,43.0,30.10,SSE,156,4.0,10.0,30,0.00,,,-99.99,,2013-08-12 07:43:00,
2013-08-12 01:52:00,76.0,43.0,30.10,SSE,156,4.0,10.0,30,0.00,,,-99.99,,2013-08-12 07:52:00,
2013-08-12 03:00:00,73.0,43.0,30.09,SE,140,4.0,6.0,34,0.00,,,-99.99,,2013-08-12 09:00:00,
2013-08-12 03:32:00,73.0,43.0,30.09,SE,140,4.0,6.0,34,0.00,,,-99.99,,2013-08-12 09:32:00,
2013-08-12 03:43:00,73.0,43.0,30.09,SE,140,4.0,6.0,34,0.00,,,-99.99,,2013-08-12 09:43:00,
2013-08-12 03:53:00,73.0,43.0,30.09,SE,140,4.0,6.0,34,0.00,,,-99.99,,2013-08-12 09:53:00,
2013-08-12 04:00:00,71.0,44.0,30.10,SE,145,3.0,8.0,38,0.00,,,-99.99,,2013-08-12 10:00:00,
2013-08-12 04:32:00,71.0,44.0,30.10,SE,145,3.0,8.0,38,0.00,,,-99.99,,2013-08-12 10:32:00,
2013-08-12 04:43:00,71.0,44.0,30.10,SE,145,3.0,8.0,38,0.00,,,-99.99,,2013-08-12 10:43:00,
2013-08-12 04:52:00,71.0,44.0,30.10,SE,145,3.0,8.0,38,0.00,,,-99.99,,2013-08-12 10:52:00,
2013-08-12 05:00:00,69.0,44.0,30.10,SE,145,4.0,8.0,40,0.00,,,-99.99,,2013-08-12 11:00:00,
2013-08-12 05:32:00,69.0,44.0,30.10,SE,145,4.0,8.0,40,0.00,,,-99.99,,2013-08-12 11:32:00,
2013-08-12 05:42:00,69.0,44.0,30.10,SE,145,4.0,8.0,40,0.00,,,-99.99,,2013-08-12 11:42:00,
2013-08-12 05:53:00,69.0,44.0,30.10,SE,145,4.0,8.0,40,0.00,,,-99.99,,2013-08-12 11:53:00,
2013-08-12 06:00:00,67.0,43.0,30.10,SE,138,3.0,7.0,42,0.00,,,-99.99,,2013-08-12 12:00:00,
2013-08-12 06:32:00,67.0,43.0,30.10,SE,138,3.0,7.0,42,0.00,,,-99.99,,2013-08-12 12:32:00,
2013-08-12 06:43:00,67.0,43.0,30.10,SE,138,3.0,7.0,42,0.00,,,-99.99,,2013-08-12 12:43:00,
2013-08-12 06:52:00,67.0,43.0,30.10,SE,138,3.0,7.0,42,0.00,,,-99.99,,2013-08-12 12:52:00,
2013-08-12 07:00:00,69.0,44.0,30.12,SE,139,5.0,10.0,40,0.00,,,-99.99,,2013-08-12 13:00:00,
2013-08-12 07:33:00,69.0,44.0,30.12,SE,139,5.0,10.0,40,0.00,,,-99.99,,2013-08-12 13:33:00,
2013-08-12 07:43:00,69.0,44.0,30.12,SE,139,5.0,10.0,40,0.00,,,-99.99,,2013-08-12 13:43:00,
2013-08-12 07:53:00,69.0,44.0,30.12,SE,139,5.0,10.0,40,0.00,,,-99.99,,2013-08-12 13:53:00,
2013-08-12 08:00:00,70.0,46.0,30.12,NNW,331,2.0,6.0,41,0.00,,,-99.99,,2013-08-12 14:00:00,
2013-08-12 08:32:00,70.0,46.0,30.12,NNW,331,2.0,6.0,41,0.00,,,-99.99,,2013-08-12 14:32:00,
2013-08-12 08:42:00,70.0,46.0,30.12,NNW,331,2.0,6.0,41,0.00,,,-99.99,,2013-08-12 14:42:00,
2013-08-12 08:53:00,70.0,46.0,30.12,NNW,331,2.0,6.0,41,0.00,,,-99.99,,2013-08-12 14:53:00,
2013-08-12 09:00:00,72.0,47.0,30.14,SSE,159,3.0,8.0,42,0.00,,,-99.99,,2013-08-12 15:00:00,
2013-08-12 09:33:00,72.0,47.0,30.14,SSE,159,3.0,8.0,42,0.00,,,-99.99,,2013-08-12 15:33:00,
2013-08-12 09:43:00,72.0,47.0,30.14,SSE,159,3.0,8.0,42,0.00,,,-99.99,,2013-08-12 15:43:00,
2013-08-12 09:52:00,72.0,47.0,30.14,SSE,159,3.0,8.0,42,0.00,,,-99.99,,2013-08-12 15:52:00,
2013-08-12 10:00:00,78.0,46.0,30.15,SE,139,3.0,7.0,32,0.00,,,-99.99,,2013-08-12 16:00:00,
2013-08-12 10:33:00,78.0,46.0,30.15,SE,139,3.0,7.0,32,0.00,,,-99.99,,2013-08-12 16:33:00,
2013-08-12 10:43:00,78.0,46.0,30.15,SE,139,3.0,7.0,32,0.00,,,-99.99,,2013-08-12 16:43:00,
2013-08-12 10:53:00,78.0,46.0,30.15,SE,139,3.0,7.0,32,0.00,,,-99.99,,2013-08-12 16:53:00,
2013-08-12 11:00:00,81.0,46.0,30.15,North,355,4.0,8.0,29,0.00,,,-99.99,,2013-08-12 17:00:00,
2013-08-12 11:32:00,81.0,46.0,30.15,North,355,4.0,8.0,29,0.00,,,-99.99,,2013-08-12 17:32:00,
2013-08-12 11:43:00,81.0,46.0,30.15,North,355,4.0,8.0,29,0.00,,,-99.99,,2013-08-12 17:43:00,
2013-08-12 11:52:00,81.0,46.0,30.15,North,355,4.0,8.0,29,0.00,,,-99.99,,2013-08-12 17:52:00,
2013-08-12 12:00:00,84.0,47.0,30.14,NNW,336,5.0,11.0,26,0.00,,,-99.99,,2013-08-12 18:00:00,
2013-08-12 12:32:00,84.0,47.0,30.14,NNW,336,5.0,11.0,26,0.00,,,-99.99,,2013-08-12 18:32:00,
2013-08-12 12:43:00,84.0,47.0,30.14,NNW,336,5.0,11.0,26,0.00,,,-99.99,,2013-08-12 18:43:00,
2013-08-12 12:52:00,84.0,47.0,30.14,NNW,336,5.0,11.0,26,0.00,,,-99.99,,2013-08-12 18:52:00,
2013-08-12 13:00:00,86.0,46.0,30.13,North,357,6.0,12.0,24,0.00,,,-99.99,,2013-08-12 19:00:00,
2013-08-12 13:43:00,86.0,46.0,30.13,North,357,6.0,12.0,24,0.00,,,-99.99,,2013-08-12 19:43:00,
2013-08-12 13:52:00,86.0,46.0,30.13,North,357,6.0,12.0,24,0.00,,,-99.99,,2013-08-12 19:52:00,
2013-08-12 16:00:00,86.0,45.0,30.07,SSE,166,8.0,20.0,23,0.00,,,-99.99,,2013-08-12 22:00:00,
2013-08-12 16:43:00,86.0,45.0,30.07,SSE,166,8.0,20.0,23,0.00,,,-99.99,,2013-08-12 22:43:00,
2013-08-12 16:53:00,86.0,45.0,30.07,SSE,166,8.0,20.0,23,0.00,,,-99.99,,2013-08-12 22:53:00,
2013-08-12 17:00:00,86.0,46.0,30.07,East,82,4.0,12.0,25,0.00,,,-99.99,,2013-08-12 23:00:00,
2013-08-12 17:43:00,86.0,46.0,30.07,East,82,4.0,12.0,25,0.00,,,-99.99,,2013-08-12 23:43:00,
2013-08-12 17:53:00,86.0,46.0,30.07,East,82,4.0,12.0,25,0.00,,,-99.99,,2013-08-12 23:53:00,
2013-08-12 18:00:00,80.0,49.0,30.08,NNW,346,10.0,23.0,34,0.00,,,-99.99,,2013-08-13 00:00:00,
2013-08-12 18:45:00,80.0,49.0,30.08,NNW,346,10.0,23.0,34,0.00,,,-99.99,,2013-08-13 00:45:00,
2013-08-12 18:53:00,80.0,49.0,30.08,NNW,346,10.0,23.0,34,0.00,,,-99.99,,2013-08-13 00:53:00,
2013-08-12 19:00:00,73.0,53.0,30.13,NNW,329,5.0,15.0,49,0.00,,,-99.99,,2013-08-13 01:00:00,
2013-08-12 19:42:00,73.0,53.0,30.13,NNW,329,5.0,15.0,49,0.00,,,-99.99,,2013-08-13 01:42:00,
2013-08-12 19:55:00,73.0,53.0,30.13,NNW,329,5.0,15.0,49,0.00,,,-99.99,,2013-08-13 01:55:00,
2013-08-12 20:00:00,74.0,50.0,30.12,SSE,167,5.0,12.0,42,0.00,,,-99.99,,2013-08-13 02:00:00,
2013-08-12 20:43:00,74.0,50.0,30.12,SSE,167,5.0,12.0,42,0.00,,,-99.99,,2013-08-13 02:43:00,
2013-08-12 20:52:00,74.0,50.0,30.12,SSE,167,5.0,12.0,42,0.00,,,-99.99,,2013-08-13 02:52:00,
2013-08-12 21:00:00,73.0,49.0,30.11,WNW,302,2.0,5.0,42,0.00,,,-99.99,,2013-08-13 03:00:00,
2013-08-12 21:43:00,73.0,49.0,30.11,WNW,302,2.0,5.0,42,0.00,,,-99.99,,2013-08-13 03:43:00,
2013-08-12 21:54:00,73.0,49.0,30.11,WNW,302,2.0,5.0,42,0.00,,,-99.99,,2013-08-13 03:54:00,
2013-08-12 22:00:00,70.0,51.0,30.11,SSE,154,1.0,3.0,49,0.00,,,-99.99,,2013-08-13 04:00:00,
2013-08-12 22:42:00,70.0,51.0,30.11,SSE,154,1.0,3.0,49,0.00,,,-99.99,,2013-08-13 04:42:00,
2013-08-12 22:53:00,70.0,51.0,30.11,SSE,154,1.0,3.0,49,0.00,,,-99.99,,2013-08-13 04:53:00,
2013-08-12 23:00:00,68.0,51.0,30.11,SSE,154,1.0,4.0,53,0.00,,,-99.99,,2013-08-13 05:00:00,
2013-08-12 23:42:00,68.0,51.0,30.11,SSE,154,1.0,4.0,53,0.00,,,-99.99,,2013-08-13 05:42:00,
2013-08-12 23:52:00,68.0,51.0,30.11,SSE,154,1.0,4.0,53,0.00,,,-99.99,,2013-08-13 05:52:00,